STARLINK-1566, 46079

Orbit data source: Space-Track

STARLINK-1566, 46079 is a payload satellite owned by SpaceX/Seattle (US) in LEO that was launched on Fri, 07 Aug 2020 UTC via an FALCON 9 launch vehicle from the Air Force Eastern Test Range (AFETR). Payload-class satellites include a variety of spacecraft equipped with specific instruments for various scientific and technological missions. These include communications satellites like Starlink; space stations such as the ISS; scientific satellites like the Hubble; Earth observation satellites from companies like Planet Labs, Umbra, and HawkEye 360; GPS; miniature CubeSats for education and research; and military/defense satellites.

Loading next visibility...
Identifier
46079, 2020-055BE
Orbit
LEO
Country
Flag of USUS
Related business
Manufacturer
SpaceX/Seattle
Mission
Operational Commercial Communications
Bus & Motor
STARLINK, Unknown motor
Mass
260 kg wet, ~248 kg dry
Launch date (UTC)
2020-08-07 (6 years ago)
Launch vehicle
FALCON 9
Launch site
Air Force Eastern Test Range (AFETR)
Object type
Payload
Rocket body
Debris
Shape & HBR
Box + 1 Pan, 10.1 m
Radar Cross Section
13.562 m², Large (>1 m²)

Expand to show TLE details & history
Last TLE update: 1 day ago

TLE from 1 day ago
0 STARLINK-1566
1 46079U 20055BE  26067.47109393  .00006895  00000-0  48147-3 0  9990
2 46079  53.0536 102.0899 0002071  58.5550 301.5641 15.06391534309129
Epoch: 2026-03-08T11:18Z
TLE epoch observation values (Epoch: 2026-03-08T11:18:22.515Z)
Latitude
-0.00004°
Longitude
126.31814°
Altitude
547.366 km
Speed
7.59 km/s
True Right ascension
06h 48m 21s
True Declination
0° 00' 00"
Sunlit
Object was in partial shadow at epoch
Visualization orbit readout
Latitude
Unknown
Longitude
Unknown
Altitude
Unknown
Speed
Unknown
Apparent Right ascension
Unknown
Apparent Declination
Unknown
Sunlit
N/A
Visualization observer readout
Local Sidereal Time
15:30:49
Azimuth
Unknown
Elevation
Unknown
Doppler factor
Unknown
Orbital elements
Apogee altitude
548.943 km
Perigee altitude
546.074 km
Semi-major axis
6,925.645 km
Eccentricity
0.00021
Inclination
53.0536°
RAAN
102.0899°
Arg. of periapsis
58.555°
True anomaly
301.54388°
Mean anomaly
301.5641°
Eccentric anomaly
301.55399°
Mean motion
3.76576 °/min
Orbital period
95.6 mins
BSTAR
0.00048147
Loading maneuver chart data...
Computing Atmospheric mass density...
Loading historical data...
Loading historical data...
Loading historical data...
Loading historical data...
Loading historical data...
Loading historical data...
Loading historical data...

Documentation

Showing up to 5 results
|